Temperature
14 14 15 15 19 20 21 21 21 20 20 19 19 20 22 22 22 21 17 17 16 16 16 16 16 16 16 16 16 16 16 16 16 15 15 15 15 15 15 15 15 15 15 15 15 15 15 15 15
14 14 15 17 19 20 21 21 20 20 20 18 18 19 20 20 18 17 17 16 16 15 15 15 16 15 15 15 15 15 16 16 15 15 15 15 15 15 15 15 15 15 15 15 15 15 15 15 15
14 14 15 18 19 21 21 20 20 19 17 17 18 18 19 19 16 16 16 16 15 15 15 15 15 15 15 15 15 15 15 15 15 15 15 15 15 15 15 15 15 15 15 15 15 15 15 15 15
13 14 16 18 19 19 20 20 19 18 17 17 18 19 17 16 15 16 17 16 15 15 14 15 15 15 15 15 15 15 15 15 15 15 15 15 15 15 15 15 15 15 15 15 15 15 15 15 15
13 15 17 17 18 19 18 18 17 19 19 18 17 19 18 15 16 16 16 16 15 14 14 14 14 15 15 15 15 15 15 15 15 15 15 15 14 14 15 15 15 15 15 15 15 15 15 15 15
14 16 17 18 19 18 18 16 17 18 18 17 17 18 17 15 15 15 15 15 14 14 14 14 14 14 14 14 14 15 15 15 14 14 14 14 14 14 14 14 15 14 14 14 14 14 14 15 15
15 16 17 18 18 18 18 16 17 18 18 17 17 18 17 15 15 15 14 14 14 14 14 13 14 14 14 14 14 14 14 14 14 14 14 14 14 14 14 14 14 14 14 14 14 14 14 14 14
13 16 16 17 17 18 17 15 15 16 18 16 15 18 17 15 15 14 14 14 13 13 13 13 13 13 14 14 14 14 14 14 14 14 14 14 14 14 14 14 14 14 14 14 14 14 14 14 14
12 15 16 17 17 17 16 15 15 14 15 14 14 15 15 15 14 14 13 13 13 13 13 13 13 13 13 13 13 13 13 13 13 13 14 14 14 14 14 14 14 14 14 14 14 14 14 14 13
13 15 16 16 16 16 15 15 15 14 15 15 14 14 14 14 14 13 13 13 13 13 13 13 13 13 13 13 13 13 13 13 13 13 13 13 13 13 14 13 13 13 13 13 14 13 13 13 13
13 14 15 14 14 14 14 14 14 15 16 16 15 14 14 13 13 13 13 13 13 13 13 13 13 13 13 13 13 13 13 13 13 13 13 13 13 13 13 13 13 13 13 13 13 13 13 13 13
12 13 13 13 12 12 14 14 14 14 16 15 14 14 14 13 13 13 13 12 12 12 12 13 12 12 12 12 12 12 12 12 12 12 13 13 13 13 13 13 13 13 13 13 13 13 13 13 12
12 13 12 12 11 12 12 13 13 14 14 13 13 13 13 13 13 13 12 12 12 12 12 12 12 12 12 12 12 12 12 12 12 12 12 12 12 12 13 13 13 13 13 13 13 13 12 12 12
12 12 12 11 11 11 12 13 13 14 13 13 13 13 12 12 12 12 12 12 12 12 12 12 12 12 12 12 12 12 12 12 12 12 12 12 12 12 12 12 12 12 12 12 12 12 12 12 12
10 11 12 12 12 12 12 13 13 13 12 12 12 12 12 12 12 12 12 12 12 12 12 12 12 12 12 12 12 12 12 11 11 11 12 12 12 12 12 12 12 12 12 12 12 12 12 12 12
11 11 12 13 12 11 12 14 15 13 12 12 12 12 12 12 12 12 12 12 12 12 12 12 12 12 11 11 11 11 11 11 11 11 11 11 11 12 12 12 12 12 12 12 12 12 12 12 11
11 12 12 13 12 12 12 13 14 12 12 12 12 12 12 11 11 11 12 12 12 12 12 12 11 11 11 11 11 11 11 11 11 11 11 11 11 11 11 11 11 11 11 12 12 11 11 11 11
12 12 12 13 12 11 12 13 13 12 11 12 12 12 12 11 11 11 11 12 12 12 12 12 11 11 11 11 11 11 11 11 11 11 11 11 11 11 11 11 11 11 11 11 11 11 11 11 11
11 11 12 12 11 11 12 12 13 12 11 12 12 12 11 11 11 11 11 11 11 11 11 11 11 11 11 11 10 10 10 11 11 11 11 11 11 11 11 11 11 11 11 11 11 11 11 11 10
9 10 11 11 10 10 11 11 12 12 12 12 12 12 11 11 11 10 10 11 11 11 11 11 11 11 11 11 11 10 10 10 10 10 10 10 10 11 10 11 11 10 10 10 10 10 10 10 10
9 9 10 10 10 10 10 11 12 12 11 11 11 11 11 11 11 10 10 10 10 11 11 11 11 11 11 10 10 10 10 10 10 10 10 10 10 10 10 10 10 10 10 10 10 10 10 10 10
8 9 9 9 9 10 10 11 12 12 12 11 11 11 10 10 10 10 10 10 10 10 10 11 11 11 10 10 10 10 10 10 10 10 10 10 10 10 10 10 10 10 10 10 10 10 10 10 10
8 8 8 8 9 9 9 10 12 11 11 12 11 10 10 9 9 9 9 9 10 10 10 10 10 10 10 10 10 10 10 9 10 9 9 9 9 9 10 10 9 9 9 9 9 9 9 9 9
7 7 7 8 8 8 10 10 12 12 11 11 11 10 9 9 9 9 9 9 9 9 9 10 10 10 10 10 10 10 9 9 9 9 9 9 9 9 9 9 9 9 9 9 9 9 9 9 9
6 7 7 7 7 9 10 10 11 11 10 10 10 10 9 8 8 8 8 8 9 9 9 9 9 9 10 9 9 9 9 9 9 9 9 9 9 9 9 9 9 9 9 9 9 8 8 8 8
6 7 8 8 9 10 9 9 10 9 9 8 8 8 8 7 7 7 8 8 8 8 8 9 9 9 9 9 9 9 9 9 9 9 9 9 9 9 9 9 8 8 8 8 8 8 8 8 8
5 6 7 7 8 9 9 9 9 8 8 8 8 7 7 7 7 7 7 7 8 8 8 8 8 8 8 8 8 9 8 8 9 9 9 9 9 9 8 8 8 8 8 8 8 8 8 7 7
6 6 6 6 7 8 9 9 9 8 8 8 8 7 7 6 6 6 6 7 7 7 7 7 7 7 8 8 8 8 8 8 8 8 8 8 8 8 8 8 8 8 8 7 7 7 7 7 7
4 4 5 6 7 8 9 9 9 8 8 8 8 7 6 5 5 5 6 6 7 6 6 7 7 7 7 7 7 7 8 8 8 8 8 8 8 8 8 8 8 7 7 7 7 7 7 7 6
4 4 5 5 5 6 8 8 7 7 7 7 6 6 5 5 5 5 5 6 6 6 6 6 6 6 6 6 6 7 7 7 7 7 7 7 7 7 7 7 7 7 7 7 7 7 6 6 6
Wind_Speed
1 1 2 3 5 6 11 8 6 6 5 3 3 4 5 5 3 1 4 6 8 11 12 14 12 12 12 12 12 11 10 10 10 10 9 10 10 10 10 11 11 11 11 11 11 12 13 13 13
1 2 3 4 6 10 9 9 10 8 3 3 4 4 4 4 0 3 4 6 8 11 12 13 13 12 12 12 11 11 10 10 9 9 9 9 9 9 10 10 11 11 11 11 11 12 13 13 13
2 1 4 4 7 11 8 7 9 6 4 4 4 4 3 2 2 3 4 8 9 10 11 12 12 12 12 12 11 11 10 10 9 9 9 9 9 10 9 10 10 11 11 12 12 12 12 13 13
3 3 3 7 12 11 7 4 4 6 5 5 4 4 3 1 1 2 6 9 10 10 10 12 12 12 11 11 11 11 11 10 9 9 9 9 9 10 9 9 10 11 11 12 12 12 12 13 13
3 4 6 9 13 9 7 5 5 7 7 6 6 4 4 3 2 4 8 10 10 9 9 11 10 11 11 11 11 11 11 10 10 9 9 9 9 9 9 9 10 11 11 11 12 12 12 13 12
5 5 8 13 13 9 8 8 7 9 7 6 6 6 3 3 4 6 8 9 9 9 9 10 10 10 11 11 11 11 10 10 10 9 9 9 8 9 9 9 10 11 11 11 12 12 12 12 12
6 6 9 12 11 11 8 8 9 10 10 8 5 5 4 5 5 6 8 8 8 9 9 9 10 10 10 10 10 10 10 10 9 9 9 8 8 9 8 9 10 11 11 11 12 12 12 12 12
4 5 9 10 11 10 7 7 6 10 9 4 6 6 5 5 6 7 7 8 8 8 8 8 9 10 10 10 10 11 10 10 10 9 9 9 8 9 8 8 9 10 11 11 12 13 13 12 12
5 8 12 12 9 7 7 8 6 4 6 5 6 5 0 6 8 8 7 7 8 8 8 8 8 9 9 9 10 11 10 10 10 10 10 9 8 8 8 8 9 10 11 11 12 13 13 12 11
8 11 14 8 7 5 7 8 7 6 9 8 7 6 4 8 10 11 11 11 10 10 9 8 9 8 8 8 9 9 10 10 10 9 10 8 7 7 7 9 9 10 11 11 12 12 12 10 9
9 12 10 8 7 5 6 7 7 8 10 11 10 9 8 9 11 11 12 12 12 11 10 9 9 9 8 7 8 7 7 8 9 10 9 8 7 7 7 7 8 9 10 9 10 10 8 7 7
9 12 10 7 7 7 8 6 8 13 10 6 8 8 9 11 12 13 12 11 10 10 10 10 9 9 9 8 7 7 6 7 7 9 9 8 6 6 6 6 6 7 7 7 7 7 8 8 7
15 10 10 10 9 9 9 11 10 13 11 6 6 8 11 13 13 12 11 11 10 10 10 10 10 10 9 8 7 7 7 7 8 8 9 9 7 6 6 6 5 6 6 7 7 6 7 7 7
10 12 11 10 11 9 12 13 12 13 9 9 8 10 12 13 13 12 11 11 12 11 11 10 10 10 10 8 8 7 7 8 8 8 9 9 8 7 6 6 5 5 6 6 7 7 7 6 6
7 10 12 13 12 8 8 15 18 14 10 11 11 11 11 13 13 13 13 12 13 12 11 10 10 10 10 10 9 8 8 8 7 7 9 9 8 8 7 6 5 5 6 7 7 7 7 6 6
8 10 12 11 12 11 10 18 13 10 12 13 12 11 11 12 13 13 13 12 12 11 11 10 9 10 10 9 9 8 8 8 8 8 8 9 9 9 7 6 5 7 7 6 6 6 6 6 6
10 13 16 11 11 10 13 15 9 7 10 13 12 11 11 10 11 11 12 12 12 12 11 11 10 10 10 9 8 8 8 8 8 8 8 9 10 9 8 6 6 7 7 6 6 6 6 6 6
14 15 14 13 8 12 15 17 10 6 9 12 12 12 11 10 11 10 10 10 10 11 11 11 10 10 9 8 7 6 6 7 7 8 9 10 10 10 9 7 8 7 6 6 7 8 6 6 6
12 14 15 12 7 11 16 18 15 10 10 11 11 11 11 11 10 9 9 9 9 9 10 11 10 10 9 7 7 7 7 6 6 6 9 10 10 10 9 7 8 7 7 8 9 8 8 7 6
14 15 15 10 7 9 13 17 16 13 14 12 12 12 11 11 8 8 8 8 9 10 10 10 11 11 10 8 7 6 6 6 6 6 7 10 10 10 9 9 8 8 7 9 9 9 6 5 5
17 18 15 11 6 8 8 13 15 12 12 12 12 12 11 11 10 9 8 8 9 9 10 10 11 12 11 10 7 6 5 4 5 6 6 8 10 10 9 10 9 8 8 8 10 10 9 7 5
16 14 13 11 9 7 8 9 11 10 10 11 11 10 10 9 9 9 8 9 9 9 9 10 10 11 11 10 10 10 9 8 8 7 6 7 9 9 10 10 10 9 8 9 9 9 8 9 7
9 7 11 12 11 10 10 9 9 7 10 10 8 8 8 8 8 8 8 8 8 8 8 9 10 10 10 10 11 11 10 8 7 7 7 7 7 8 9 10 10 9 8 9 9 8 7 7 7
6 5 6 8 8 12 16 13 10 7 9 7 7 7 6 6 6 6 6 6 6 6 7 8 9 9 10 10 11 12 12 10 9 9 8 7 6 6 8 9 9 9 9 9 9 8 8 7 6
8 7 6 8 10 12 11 11 8 3 4 6 5 4 3 3 3 4 5 5 5 6 7 8 9 9 9 10 10 11 11 12 11 10 9 8 6 6 8 8 9 9 9 9 9 8 7 7 7
11 12 8 8 10 8 9 11 5 2 2 3 3 2 1 1 2 3 4 5 6 6 7 8 9 8 9 9 9 9 10 8 8 9 8 8 7 7 8 8 9 9 9 9 9 7 7 7 7
7 10 9 5 4 6 8 6 4 2 1 2 2 1 1 1 1 1 2 3 4 6 7 8 9 8 8 9 9 8 9 8 8 8 8 6 6 6 8 9 9 9 9 9 9 7 7 7 6
6 5 5 5 6 8 8 9 6 5 4 3 2 2 2 1 1 1 1 1 2 4 5 6 8 8 8 8 8 7 8 8 8 8 8 7 7 6 8 8 8 8 9 9 8 7 7 7 6
4 5 5 5 5 5 7 4 2 3 2 2 2 2 1 0 1 1 0 1 2 3 3 5 6 6 6 7 7 7 7 7 7 7 7 7 7 7 8 8 8 8 8 8 8 8 8 7 6
4 4 5 6 5 6 5 3 3 2 2 2 2 2 1 1 1 1 0 1 2 2 3 3 4 5 6 6 6 6 6 6 6 7 7 7 7 7 7 8 8 8 8 8 8 8 8 8 7
Wind_Direction
324 255 217 204 206 221 232 218 209 191 195 198 191 204 216 210 217 104 89 142 147 152 154 155 151 152 151 148 144 142 138 133 134 139 139 136 134 130 128 129 125 123 124 123 121 120 119 117 115
231 207 196 205 222 224 226 216 210 204 174 161 186 209 217 219 25 89 132 146 153 153 155 156 150 153 152 151 148 146 144 140 139 141 142 143 141 136 129 130 131 126 121 121 121 119 118 116 115
163 224 204 203 223 230 222 201 212 195 180 188 188 217 233 205 144 136 136 153 156 154 156 151 153 154 154 154 152 150 149 147 144 144 145 144 142 138 134 131 132 129 124 122 121 120 119 117 117
186 181 205 224 228 229 235 190 183 184 192 204 206 204 201 99 125 133 145 158 158 157 156 152 157 156 156 158 157 155 154 151 149 146 145 145 143 142 139 136 134 131 127 125 123 120 120 120 118
198 201 209 228 234 229 227 225 200 198 192 194 210 220 199 143 129 141 155 161 161 159 157 155 156 157 160 162 160 158 158 156 154 148 146 148 146 143 142 141 136 134 132 129 127 124 121 119 121
187 208 221 230 229 225 225 220 214 220 211 201 212 223 205 148 155 154 161 165 162 161 161 160 158 156 162 164 164 161 158 158 156 152 149 145 146 144 144 146 141 138 137 133 130 126 124 121 119
207 209 233 238 236 230 220 204 215 218 218 208 204 212 194 174 161 159 165 166 164 165 166 165 166 162 159 161 163 161 159 157 154 151 148 141 142 144 145 146 146 142 140 137 134 131 126 123 118
221 219 235 234 234 233 206 198 221 222 226 203 204 217 208 171 157 158 163 169 171 173 175 172 171 170 171 170 166 163 160 157 153 147 142 140 142 146 147 146 147 146 143 140 137 134 129 124 119
204 223 232 226 225 226 191 202 206 224 221 206 216 236 234 143 158 163 168 178 182 183 184 180 176 174 174 175 170 167 161 157 153 149 145 151 158 157 157 147 142 146 145 143 139 136 131 126 120
204 226 233 228 223 218 196 211 204 204 217 220 220 220 191 171 178 183 188 191 193 192 190 188 183 178 177 175 174 175 173 167 169 164 162 164 161 154 150 136 137 141 146 146 142 140 139 138 133
210 231 235 226 220 225 215 220 216 221 227 226 223 210 193 192 194 198 201 200 199 196 193 192 190 184 183 178 178 175 176 174 173 169 167 164 158 152 151 149 147 151 155 155 152 150 151 145 138
221 235 236 231 216 222 229 229 227 229 237 246 241 217 205 206 207 206 207 206 202 200 198 196 193 190 188 184 181 178 175 177 175 172 169 167 160 159 158 158 160 162 164 159 160 157 152 146 141
226 235 233 237 233 236 240 237 243 243 243 254 244 221 217 216 217 215 212 211 207 205 201 198 196 195 190 186 184 182 179 183 179 176 175 174 167 166 163 161 161 163 163 161 156 152 150 145 140
232 235 240 240 237 235 239 246 242 244 236 235 233 229 227 224 221 218 214 213 212 210 207 201 198 197 191 188 186 185 183 180 182 180 179 179 174 167 167 167 165 162 163 164 159 154 148 143 138
230 239 245 236 229 227 234 248 236 240 236 238 238 238 236 231 224 221 218 217 214 212 209 205 201 198 194 193 189 183 182 180 179 180 181 180 178 172 170 169 169 165 163 159 154 153 145 140 136
220 231 239 225 214 212 216 249 242 230 229 239 241 241 239 234 228 226 221 219 216 213 209 205 201 198 197 193 187 184 182 180 178 179 180 182 181 178 171 170 171 168 164 160 157 156 152 144 142
216 228 234 227 206 204 216 251 254 228 229 238 240 240 239 237 232 228 223 218 215 211 207 203 200 196 193 187 184 182 179 181 180 179 181 181 180 179 174 170 167 169 166 163 161 160 157 150 144
220 226 232 230 206 211 226 244 248 239 238 242 242 240 239 239 237 229 220 215 213 209 205 201 196 194 187 181 181 179 178 182 183 183 183 181 179 180 177 171 170 172 170 165 164 157 149 144 139
242 237 240 239 221 222 236 248 252 246 244 246 244 241 239 239 239 229 218 210 205 203 201 199 194 188 181 179 181 183 188 185 186 186 186 184 181 180 179 175 173 178 176 170 165 155 147 142 139
236 239 243 246 223 229 249 255 255 248 242 244 246 243 241 239 231 220 212 209 206 203 201 199 194 187 185 188 187 188 185 188 185 183 186 186 184 181 181 181 179 180 175 171 166 159 157 151 161
232 233 236 240 240 235 259 261 247 239 238 243 246 246 244 239 233 223 214 210 209 207 203 199 194 190 187 185 179 167 169 175 183 183 187 188 186 183 182 183 180 179 179 174 170 170 168 168 169
238 233 234 234 239 238 226 258 248 234 232 235 240 240 241 239 235 228 219 213 208 207 204 200 194 190 189 185 183 182 187 192 195 188 188 184 186 185 183 181 180 178 178 173 173 177 173 171 171
238 235 223 226 236 246 229 242 254 221 230 230 233 233 234 235 231 228 220 215 210 203 198 197 193 190 189 189 189 189 194 196 188 182 182 182 185 187 185 184 178 176 177 174 173 175 175 176 177
214 205 209 218 227 240 230 228 251 222 226 226 229 229 230 236 233 228 220 210 205 196 190 188 186 189 191 190 189 192 192 188 183 182 181 182 182 185 186 184 179 176 176 174 175 175 178 176 173
200 194 194 200 213 234 212 218 242 236 217 226 231 231 231 235 234 225 216 208 202 192 188 185 184 186 188 190 192 192 193 188 187 184 184 182 181 182 185 182 179 175 173 173 174 175 179 178 174
211 212 216 220 221 221 194 219 220 166 214 239 249 244 230 225 229 227 217 209 202 194 190 185 187 188 186 187 190 191 189 184 186 188 185 185 185 183 177 176 176 172 171 172 173 175 178 177 178
206 219 235 258 241 224 207 214 224 199 224 230 244 265 308 314 301 240 215 209 203 196 192 188 187 186 186 185 183 184 185 184 184 185 185 183 180 175 176 176 173 170 173 175 174 179 181 180 181
230 214 208 217 220 224 216 220 216 185 204 229 258 288 316 350 10 345 221 209 205 198 190 184 186 184 183 183 183 181 183 186 184 182 182 179 177 173 175 176 173 172 173 174 173 176 182 180 179
203 203 222 225 242 238 226 214 181 198 212 229 259 293 288 310 351 331 203 169 170 173 176 173 178 177 174 175 179 175 177 182 180 180 182 178 173 173 177 175 173 173 175 176 176 176 177 182 178
233 218 213 222 224 237 244 226 72 21 13 2 346 347 331 345 351 349 56 101 120 137 150 162 168 172 172 170 172 171 169 171 176 178 180 174 174 176 177 176 175 173 173 176 180 180 182 185 186
Height
1513 1515 1517 1520 1519 1514 1508 1505 1507 1508 1510 1512 1513 1512 1510 1510 1512 1517 1516 1514 1516 1518 1520 1522 1525 1527 1529 1531 1532 1534 1535 1536 1537 1538 1539 1540 1541 1542 1542 1543 1544 1545 1546 1546 1547 1548 1549 1549 1550
1513 1515 1519 1519 1513 1509 1504 1503 1506 1506 1509 1512 1513 1513 1512 1511 1513 1514 1513 1514 1515 1518 1520 1522 1524 1527 1528 1530 1532 1533 1535 1536 1537 1538 1539 1540 1541 1542 1543 1544 1545 1545 1546 1547 1548 1548 1549 1550 1551
1513 1515 1518 1514 1509 1502 1499 1502 1503 1508 1511 1512 1512 1512 1512 1512 1512 1512 1512 1513 1515 1518 1520 1521 1524 1526 1528 1530 1531 1533 1534 1535 1536 1537 1538 1539 1541 1542 1543 1544 1545 1546 1546 1547 1548 1549 1550 1551 1551
1514 1517 1517 1512 1504 1501 1500 1502 1505 1508 1510 1511 1511 1511 1511 1511 1511 1511 1512 1513 1515 1517 1520 1521 1523 1525 1527 1529 1531 1532 1533 1535 1536 1537 1538 1539 1540 1541 1542 1543 1545 1546 1547 1547 1548 1549 1550 1551 1552
1514 1515 1511 1506 1501 1500 1503 1505 1507 1506 1507 1509 1510 1508 1509 1510 1509 1510 1511 1513 1515 1517 1519 1520 1523 1525 1526 1528 1530 1531 1532 1534 1535 1536 1537 1539 1540 1541 1542 1543 1545 1546 1547 1548 1549 1550 1550 1551 1552
1514 1511 1506 1499 1497 1499 1503 1505 1506 1505 1506 1508 1509 1508 1508 1508 1508 1509 1511 1512 1514 1516 1518 1520 1522 1524 1525 1527 1529 1530 1531 1532 1534 1535 1536 1538 1539 1540 1542 1543 1544 1546 1547 1548 1549 1550 1551 1552 1553
1511 1507 1499 1495 1495 1497 1500 1503 1503 1502 1503 1505 1507 1506 1506 1507 1507 1508 1510 1512 1513 1515 1517 1519 1521 1522 1524 1526 1527 1529 1530 1531 1533 1534 1536 1537 1538 1540 1541 1543 1544 1545 1547 1548 1549 1550 1551 1552 1553
1508 1506 1499 1496 1495 1494 1498 1501 1501 1502 1502 1504 1505 1504 1504 1505 1505 1507 1509 1510 1512 1514 1516 1517 1519 1521 1522 1524 1526 1527 1529 1530 1531 1533 1535 1536 1537 1539 1540 1542 1544 1545 1547 1548 1549 1550 1551 1552 1554
1506 1505 1494 1491 1493 1492 1497 1499 1500 1500 1501 1501 1502 1502 1503 1502 1503 1505 1507 1509 1510 1512 1514 1515 1517 1519 1521 1522 1524 1525 1527 1528 1530 1532 1533 1535 1536 1538 1540 1541 1543 1545 1546 1548 1549 1550 1551 1552 1554
1503 1496 1487 1490 1492 1493 1496 1497 1498 1499 1498 1499 1499 1499 1500 1500 1501 1503 1504 1506 1507 1509 1511 1513 1515 1517 1518 1520 1522 1523 1525 1526 1528 1530 1532 1534 1535 1537 1538 1540 1542 1544 1545 1547 1549 1550 1551 1553 1554
1497 1490 1489 1492 1494 1495 1495 1496 1496 1496 1494 1494 1495 1496 1497 1498 1499 1500 1502 1503 1505 1507 1508 1510 1512 1514 1516 1518 1520 1521 1523 1524 1526 1528 1530 1532 1533 1535 1537 1538 1540 1543 1545 1546 1548 1549 1551 1552 1553
1493 1490 1491 1491 1493 1494 1493 1493 1494 1492 1491 1492 1493 1493 1494 1495 1496 1497 1499 1501 1503 1504 1506 1508 1510 1511 1513 1515 1517 1519 1520 1522 1523 1526 1528 1530 1531 1533 1535 1537 1539 1541 1543 1545 1546 1548 1550 1551 1553
1490 1488 1490 1491 1492 1492 1492 1491 1490 1488 1489 1489 1489 1490 1491 1492 1493 1494 1496 1498 1499 1501 1503 1505 1507 1509 1510 1512 1514 1516 1518 1519 1521 1524 1526 1528 1529 1531 1533 1535 1537 1539 1541 1543 1545 1547 1549 1550 1552
1486 1487 1488 1488 1489 1489 1489 1487 1488 1482 1485 1486 1486 1486 1487 1488 1489 1490 1492 1493 1495 1497 1500 1502 1503 1505 1508 1509 1511 1513 1516 1517 1519 1521 1523 1525 1527 1529 1531 1533 1535 1537 1539 1542 1544 1545 1547 1549 1551
1487 1486 1484 1483 1485 1486 1488 1482 1478 1479 1482 1482 1483 1483 1483 1484 1485 1486 1487 1489 1491 1494 1496 1498 1500 1502 1504 1506 1508 1511 1513 1515 1517 1519 1521 1523 1525 1527 1529 1531 1533 1535 1538 1540 1542 1544 1546 1548 1549
1484 1482 1477 1474 1480 1482 1486 1471 1470 1475 1477 1478 1478 1479 1479 1480 1481 1482 1484 1486 1488 1490 1492 1494 1497 1499 1501 1503 1505 1508 1510 1512 1514 1516 1518 1520 1522 1525 1527 1528 1531 1533 1535 1538 1540 1542 1544 1546 1548
1477 1471 1467 1470 1474 1476 1478 1467 1468 1471 1473 1473 1474 1475 1475 1476 1477 1478 1480 1482 1484 1486 1488 1491 1493 1495 1498 1500 1502 1505 1507 1509 1511 1513 1515 1517 1520 1522 1524 1526 1528 1531 1533 1536 1538 1540 1542 1544 1546
1464 1463 1463 1465 1469 1472 1470 1465 1466 1469 1469 1469 1469 1470 1471 1471 1472 1474 1476 1477 1480 1482 1484 1487 1489 1492 1494 1496 1499 1501 1503 1505 1508 1510 1512 1515 1517 1519 1521 1523 1525 1528 1531 1533 1535 1538 1540 1542 1544
1462 1462 1460 1462 1467 1470 1465 1462 1461 1464 1466 1465 1464 1465 1466 1467 1469 1470 1471 1473 1475 1478 1480 1482 1485 1488 1490 1492 1494 1497 1499 1502 1505 1507 1509 1512 1514 1516 1518 1520 1523 1525 1528 1530 1533 1535 1537 1539 1542
1465 1463 1461 1463 1467 1467 1462 1459 1457 1459 1460 1460 1460 1461 1462 1463 1464 1465 1467 1469 1471 1473 1475 1478 1480 1483 1486 1488 1491 1494 1496 1499 1501 1503 1506 1508 1511 1513 1515 1517 1520 1522 1525 1528 1530 1531 1534 1536 1539
1462 1461 1459 1462 1465 1465 1463 1454 1451 1452 1455 1456 1457 1457 1458 1459 1460 1461 1463 1464 1466 1468 1471 1473 1476 1479 1482 1485 1488 1490 1493 1495 1497 1499 1502 1505 1507 1510 1512 1514 1517 1519 1522 1524 1526 1529 1531 1533 1536
1458 1458 1461 1463 1463 1459 1461 1451 1441 1445 1448 1450 1452 1453 1454 1455 1456 1458 1459 1460 1462 1464 1467 1470 1472 1475 1478 1481 1483 1486 1488 1491 1493 1496 1499 1502 1504 1506 1509 1511 1513 1516 1519 1521 1524 1526 1528 1531 1533
1457 1459 1460 1461 1461 1459 1457 1455 1438 1442 1443 1444 1447 1449 1450 1451 1453 1454 1455 1456 1458 1460 1463 1465 1468 1471 1474 1476 1479 1482 1485 1488 1491 1493 1496 1498 1500 1503 1505 1507 1510 1513 1515 1518 1520 1523 1525 1527 1530
1460 1461 1461 1460 1460 1457 1445 1448 1434 1435 1437 1440 1443 1445 1446 1448 1449 1450 1452 1453 1455 1457 1459 1461 1464 1467 1470 1472 1475 1478 1481 1484 1487 1489 1492 1494 1496 1499 1501 1503 1506 1509 1512 1514 1517 1520 1522 1524 1527
1457 1457 1455 1455 1454 1441 1437 1441 1433 1434 1438 1439 1441 1443 1444 1445 1446 1447 1448 1449 1451 1453 1455 1457 1460 1463 1466 1468 1470 1473 1477 1480 1483 1486 1488 1490 1492 1495 1497 1500 1502 1505 1508 1511 1514 1517 1519 1522 1524
1452 1451 1445 1439 1433 1429 1439 1435 1433 1438 1439 1440 1441 1441 1442 1443 1444 1444 1445 1446 1448 1449 1451 1454 1456 1459 1461 1464 1467 1470 1473 1476 1479 1482 1485 1487 1490 1492 1495 1497 1500 1502 1505 1508 1511 1514 1516 1518 1520
1451 1448 1446 1444 1436 1433 1428 1432 1435 1438 1438 1439 1439 1439 1440 1441 1441 1442 1443 1444 1445 1446 1448 1450 1453 1455 1457 1460 1463 1466 1470 1473 1476 1479 1482 1485 1487 1489 1492 1494 1497 1499 1502 1505 1507 1510 1512 1515 1517
1451 1448 1448 1447 1437 1427 1423 1427 1427 1433 1435 1436 1437 1438 1439 1440 1440 1441 1441 1442 1443 1444 1446 1448 1450 1452 1454 1457 1460 1463 1467 1470 1473 1476 1479 1482 1484 1487 1489 1491 1494 1497 1499 1501 1504 1507 1509 1511 1513
1451 1451 1447 1442 1439 1429 1422 1425 1429 1431 1433 1435 1437 1438 1439 1439 1439 1440 1440 1441 1441 1443 1444 1445 1448 1450 1452 1454 1458 1461 1464 1467 1471 1473 1476 1479 1481 1484 1486 1489 1491 1494 1496 1498 1500 1503 1505 1508 1510
1450 1449 1448 1445 1442 1435 1427 1430 1432 1434 1435 1436 1437 1438 1439 1439 1439 1439 1439 1439 1440 1442 1443 1444 1446 1448 1450 1452 1455 1458 1462 1465 1468 1470 1473 1476 1478 1481 1483 1486 1488 1490 1492 1495 1497 1499 1502 1504 1506